When you browse on this site, cookies collect data to enhance your experience and personalize the content and advertising you see.
Visit our Privacy Policy to learn more. By continuing to use the site, you agree to this use of cookies and data.
  • In Lithuania
  • List of Countries
  • For 7 days
  • Water Temperature
  • Satellite Maps
  • Weather Map
  • Weather Widgets
  • user-avatar
    Login

    Hourly Weather Tonton

    Today, 19 April, Friday

    Time Temperature Precipitation Wind Pressure Humidity
    00:00 +10°C° 0 mm 3 mps 767 mmHg 78%
    01:00 +10°C° 0 mm 3 mps 767 mmHg 77%
    02:00 +9°C° 0 mm 3 mps 767 mmHg 76%
    03:00 +9°C° 0 mm 3 mps 767 mmHg 74%
    04:00 +9°C° 0 mm 3 mps 767 mmHg 78%
    05:00 +8°C° 0 mm 3 mps 767 mmHg 81%
    06:00 +8°C° 0 mm 3 mps 768 mmHg 85%
    07:00 +10°C° 0 mm 3 mps 768 mmHg 82%
    08:00 +12°C° 0 mm 3 mps 768 mmHg 80%
    09:00 +14°C° 0 mm 3 mps 769 mmHg 78%
    10:00 +16°C° 0 mm 3 mps 769 mmHg 76%
    11:00 +18°C° 0 mm 3 mps 769 mmHg 74%
    12:00 +20°C° 0 mm 3 mps 769 mmHg 71%
    13:00 +20°C° 0 mm 3 mps 769 mmHg 70%
    14:00 +20°C° 0 mm 3 mps 769 mmHg 70%
    15:00 +21°C° 0 mm 2 mps 769 mmHg 69%
    16:00 +20°C° 0 mm 2 mps 770 mmHg 73%
    17:00 +20°C° 0 mm 2 mps 770 mmHg 77%
    18:00 +19°C° 0 mm 2 mps 770 mmHg 81%
    19:00 +17°C° 0 mm 2 mps 770 mmHg 84%
    20:00 +16°C° 0 mm 2 mps 770 mmHg 87%
    21:00 +14°C° 0 mm 2 mps 771 mmHg 89%
    22:00 +14°C° 0 mm 2 mps 771 mmHg 89%
    23:00 +13°C° 0 mm 2 mps 771 mmHg 89%

    Tomorrow, 20 April, Saturday

    Time Temperature Precipitation Wind Pressure Humidity
    00:00 +12°C° 0 mm 2 mps 771 mmHg 89%
    01:00 +12°C° 0 mm 2 mps 771 mmHg 89%
    02:00 +10°C° 0 mm 2 mps 771 mmHg 88%
    03:00 +10°C° 0 mm 2 mps 771 mmHg 87%
    04:00 +9°C° 0 mm 2 mps 771 mmHg 88%
    05:00 +9°C° 0 mm 2 mps 771 mmHg 89%
    06:00 +9°C° 0 mm 2 mps 771 mmHg 90%
    07:00 +12°C° 0 mm 2 mps 771 mmHg 86%
    08:00 +13°C° 0 mm 3 mps 771 mmHg 82%
    09:00 +16°C° 0 mm 3 mps 771 mmHg 79%
    10:00 +17°C° 0 mm 3 mps 771 mmHg 75%
    11:00 +18°C° 0 mm 3 mps 771 mmHg 72%
    12:00 +20°C° 0 mm 3 mps 771 mmHg 68%
    13:00 +20°C° 0 mm 3 mps 770 mmHg 68%
    14:00 +20°C° 0 mm 3 mps 770 mmHg 67%
    15:00 +21°C° 0 mm 3 mps 770 mmHg 67%
    16:00 +20°C° 0 mm 3 mps 770 mmHg 72%
    17:00 +19°C° 0 mm 3 mps 769 mmHg 77%
    18:00 +19°C° 0 mm 2 mps 769 mmHg 83%
    19:00 +17°C° 0 mm 2 mps 769 mmHg 85%
    20:00 +16°C° 0 mm 2 mps 769 mmHg 88%
    21:00 +14°C° 0 mm 2 mps 769 mmHg 90%
    22:00 +14°C° 0 mm 2 mps 769 mmHg 91%
    23:00 +13°C° 0 mm 2 mps 768 mmHg 91%

    Day after tomorrow, 21 April, Sunday

    Time Temperature Precipitation Wind Pressure Humidity
    00:00 +13°C° 0 mm 2 mps 768 mmHg 92%
    01:00 +12°C° 0 mm 1 mps 768 mmHg 90%
    02:00 +11°C° 0 mm 1 mps 767 mmHg 88%
    03:00 +10°C° 0 mm 1 mps 767 mmHg 87%
    04:00 +10°C° 0 mm 1 mps 766 mmHg 85%
    05:00 +10°C° 0 mm 1 mps 766 mmHg 83%
    06:00 +10°C° 0 mm 1 mps 766 mmHg 81%
    07:00 +12°C° 0 mm 1 mps 765 mmHg 77%
    08:00 +14°C° 0 mm 1 mps 765 mmHg 74%
    09:00 +16°C° 0 mm 1 mps 765 mmHg 70%
    10:00 +18°C° 0 mm 1 mps 764 mmHg 68%
    11:00 +19°C° 0 mm 1 mps 764 mmHg 66%
    12:00 +21°C° 0 mm 1 mps 763 mmHg 64%
    13:00 +20°C° 0 mm 2 mps 763 mmHg 65%
    14:00 +20°C° 0 mm 2 mps 762 mmHg 66%
    15:00 +20°C° 0 mm 2 mps 761 mmHg 67%
    16:00 +19°C° 0 mm 2 mps 761 mmHg 73%
    17:00 +18°C° 0 mm 2 mps 760 mmHg 79%
    18:00 +17°C° 0 mm 2 mps 760 mmHg 85%
    19:00 +15°C° 0 mm 2 mps 760 mmHg 86%
    20:00 +14°C° 0 mm 2 mps 759 mmHg 88%
    21:00 +12°C° 0 mm 2 mps 759 mmHg 89%
    22:00 +10°C° 0 mm 2 mps 758 mmHg 89%
    23:00 +9°C° 0 mm 2 mps 758 mmHg 88%

    22 April, Monday

    Time Temperature Precipitation Wind Pressure Humidity
    00:00 +9°C° 0 mm 2 mps 757 mmHg 88%
    01:00 +8°C° 0 mm 2 mps 756 mmHg 89%
    02:00 +8°C° 0 mm 2 mps 756 mmHg 91%
    03:00 +8°C° 0 mm 2 mps 755 mmHg 92%
    04:00 +9°C° 0 mm 3 mps 754 mmHg 93%
    05:00 +9°C° 0 mm 3 mps 754 mmHg 94%
    06:00 +9°C° 0 mm 3 mps 753 mmHg 95%
    07:00 +11°C° 0 mm 3 mps 753 mmHg 91%
    08:00 +13°C° 0 mm 4 mps 753 mmHg 87%
    09:00 +17°C° 0 mm 4 mps 752 mmHg 83%
    10:00 +16°C° 0 mm 5 mps 752 mmHg 79%
    11:00 +17°C° 0 mm 5 mps 751 mmHg 75%
    12:00 +19°C° 0 mm 5 mps 751 mmHg 71%
    13:00 +19°C° 0 mm 5 mps 750 mmHg 71%
    14:00 +19°C° 0 mm 5 mps 750 mmHg 70%
    15:00 +19°C° 0 mm 5 mps 749 mmHg 70%
    16:00 +18°C° 0 mm 4 mps 749 mmHg 74%
    17:00 +17°C° 0 mm 3 mps 748 mmHg 78%
    18:00 +16°C° 0 mm 3 mps 748 mmHg 82%
    19:00 +15°C° 0 mm 2 mps 748 mmHg 84%
    20:00 +14°C° 0 mm 2 mps 748 mmHg 85%
    21:00 +13°C° 0 mm 1 mps 748 mmHg 87%
    22:00 +13°C° 0 mm 1 mps 747 mmHg 88%
    23:00 +12°C° 0 mm 1 mps 747 mmHg 88%

    23 April, Tuesday

    Time Temperature Precipitation Wind Pressure Humidity
    00:00 +12°C° 0 mm 1 mps 746 mmHg 89%
    01:00 +12°C° 0 mm 2 mps 746 mmHg 91%
    02:00 +10°C° 0 mm 2 mps 746 mmHg 92%
    03:00 +10°C° 0 mm 2 mps 745 mmHg 94%
    04:00 +10°C° 0 mm 2 mps 745 mmHg 94%
    05:00 +10°C° 0 mm 2 mps 745 mmHg 95%
    06:00 +10°C° 0 mm 2 mps 745 mmHg 96%
    07:00 +12°C° 0.1 mm 2 mps 745 mmHg 94%
    08:00 +14°C° 0.1 mm 2 mps 745 mmHg 93%
    09:00 +15°C° 0.1 mm 2 mps 745 mmHg 91%
    10:00 +16°C° 0.4 mm 2 mps 745 mmHg 87%
    11:00 +17°C° 0.4 mm 3 mps 745 mmHg 83%
    12:00 +18°C° 0.4 mm 3 mps 745 mmHg 79%
    13:00 +18°C° 0.2 mm 3 mps 745 mmHg 78%
    14:00 +18°C° 0.2 mm 4 mps 744 mmHg 76%
    15:00 +19°C° 0.2 mm 4 mps 744 mmHg 75%
    16:00 +18°C° 0 mm 4 mps 744 mmHg 78%
    17:00 +17°C° 0 mm 4 mps 744 mmHg 82%
    18:00 +16°C° 0 mm 3 mps 744 mmHg 85%
    19:00 +14°C° 0 mm 3 mps 744 mmHg 88%
    20:00 +13°C° 0 mm 3 mps 744 mmHg 91%
    21:00 +11°C° 0 mm 3 mps 744 mmHg 94%
    22:00 +12°C° 0.2 mm 4 mps 744 mmHg 94%
    23:00 +12°C° 0.2 mm 4 mps 744 mmHg 95%

    24 April, Wednesday

    Time Temperature Precipitation Wind Pressure Humidity
    00:00 +12°C° 0.2 mm 5 mps 743 mmHg 95%
    01:00 +12°C° 0.2 mm 5 mps 743 mmHg 95%
    02:00 +12°C° 0.2 mm 5 mps 743 mmHg 96%
    03:00 +12°C° 0.2 mm 5 mps 742 mmHg 96%
    04:00 +12°C° 0.2 mm 5 mps 742 mmHg 96%
    05:00 +11°C° 0.2 mm 6 mps 742 mmHg 96%
    06:00 +11°C° 0.2 mm 6 mps 742 mmHg 96%
    07:00 +10°C° 0.1 mm 7 mps 742 mmHg 95%
    08:00 +10°C° 0.1 mm 7 mps 743 mmHg 93%
    09:00 +9°C° 0.1 mm 8 mps 743 mmHg 92%
    10:00 +10°C° 0 mm 8 mps 744 mmHg 87%
    11:00 +10°C° 0 mm 8 mps 744 mmHg 82%
    12:00 +11°C° 0 mm 8 mps 744 mmHg 76%
    13:00 +11°C° 0 mm 9 mps 744 mmHg 74%
    14:00 +11°C° 0 mm 9 mps 744 mmHg 72%
    15:00 +12°C° 0 mm 10 mps 744 mmHg 70%
    16:00 +11°C° 0.1 mm 9 mps 743 mmHg 74%
    17:00 +10°C° 0.1 mm 9 mps 743 mmHg 78%
    18:00 +10°C° 0.1 mm 9 mps 743 mmHg 82%
    19:00 +8°C° 0.2 mm 9 mps 743 mmHg 84%
    20:00 +8°C° 0.2 mm 9 mps 743 mmHg 85%
    21:00 +7°C° 0.2 mm 9 mps 742 mmHg 86%
    22:00 +7°C° 0.1 mm 8 mps 742 mmHg 87%
    23:00 +8°C° 0.1 mm 7 mps 742 mmHg 89%
    Show more